DW5164 Weather Reports


time (UTC)temp
C
wind
direction
speed
KPH
gust
KPH
rain 1hr
cm
rain 24hr
cm
rain mn
cm
humidity
%
barometer
mb
20260905093435 29 265 12.9 19.3 0.00 0.00 0.00 57 1015.7
20260905092935 29 301 9.7 14.5 0.00 0.00 0.00 59 1015.7
20260905092435 30 271 9.7 20.9 0.00 0.00 0.00 59 1015.7
20260905091436 28 305 8.0 19.3 0.00 0.00 0.00 61 1015.8
20260905090935 28 300 9.7 16.1 0.00 0.00 0.00 61 1015.8
20260905090435 28 298 11.3 19.3 0.00 0.00 0.00 63 1015.8
20260905085436 28 318 9.7 19.3 0.00 0.00 0.00 62 1015.9
20260905084935 28 313 9.7 19.3 0.00 0.00 0.00 63 1015.8
20260905083942 28 283 8.0 14.5 0.00 0.00 0.00 64 1015.5
20260905083437 28 288 9.7 19.3 0.00 0.00 0.00 64 1015.5
20260905082935 27 290 9.7 12.9 0.00 0.00 0.00 66 1015.5
20260905082438 27 293 6.4 16.1 0.00 0.00 0.00 65 1015.5
20260905081935 27 290 9.7 16.1 0.00 0.00 0.00 65 1015.6
20260905080935 27 308 12.9 19.3 0.00 0.00 0.00 72 1015.6
20260905074938 27 318 4.8 9.7 0.00 0.00 0.00 73 1015.5
20260905073435 26 287 3.2 4.8 0.00 0.00 0.00 74 1015.4
20260905072935 26 303 3.2 8.0 0.00 0.00 0.00 75 1015.4
20260905072435 25 304 4.8 8.0 0.00 0.00 0.00 75 1015.4
20260905070936 25 295 3.2 4.8 0.00 0.00 0.00 76 1015.4
20260905070436 24 287 3.2 4.8 0.00 0.00 0.00 78 1015.3
20260905065934 24 280 1.6 4.8 0.00 0.00 0.00 79 1015.3
20260905065435 23 300 3.2 8.0 0.00 0.00 0.00 79 1015.4
20260905064935 23 298 4.8 4.8 0.00 0.00 0.00 80 1015.4
20260905064435 23 313 4.8 4.8 0.00 0.00 0.00 80 1015.4
20260905063936 23 297 4.8 4.8 0.00 0.00 0.00 81 1015.3
20260905063436 23 298 1.6 4.8 0.00 0.00 0.00 81 1015.3
20260905062934 22 30 0.0 0.0 0.00 0.00 0.00 83 1015.2
20260905062435 22 71 0.0 0.0 0.00 0.00 0.00 83 1015.1
20260905061935 23 71 0.0 0.0 0.00 0.00 0.00 82 1015.1
20260905060935 22 71 0.0 0.0 0.00 0.00 0.00 83 1014.9
20260905060435 22 71 0.0 0.0 0.00 0.00 0.00 84 1015.0
20260905055934 22 71 0.0 0.0 0.00 0.00 0.00 84 1014.9
20260905055435 21 344 0.0 0.0 0.00 0.00 0.00 86 1014.9
20260905054938 21 344 0.0 0.0 0.00 0.00 0.00 87 1014.9
20260905054443 21 344 0.0 0.0 0.00 0.00 0.00 88 1014.8
20260905053935 21 338 0.0 0.0 0.00 0.00 0.00 89 1014.8
20260905052950 20 327 0.0 0.0 0.00 0.00 0.00 90 1014.7
20260905052435 20 319 0.0 0.0 0.00 0.00 0.00 91 1014.8
20260905051934 19 319 0.0 0.0 0.00 0.00 0.00 91 1014.7
20260905051435 19 319 0.0 0.0 0.00 0.00 0.00 92 1014.8
20260905050934 19 38 0.0 0.0 0.00 0.00 0.00 91 1014.6
20260905045942 19 17 1.6 4.8 0.00 0.00 0.00 92 1014.4
20260905044435 19 295 3.2 4.8 0.00 0.00 0.00 91 1014.4
20260905043437 19 319 1.6 4.8 0.00 0.00 0.00 91 1014.2
20260905042934 19 329 0.0 0.0 0.00 0.00 0.00 91 1014.2
20260905041434 20 329 0.0 0.0 0.00 0.00 0.00 90 1014.2
20260905040935 20 329 0.0 0.0 0.00 0.00 0.00 90 1014.2
20260905040434 20 329 0.0 0.0 0.00 0.00 0.00 90 1014.3
20260905035934 20 329 0.0 3.2 0.00 0.00 0.00 90 1014.3
20260905035434 20 327 1.6 4.8 0.00 0.00 0.00 90 1014.3
20260905034934 20 326 0.0 3.2 0.00 0.00 0.00 90 1014.2
20260905034435 20 326 3.2 4.8 0.00 0.00 0.00 90 1014.2
20260905033934 20 330 3.2 4.8 0.00 0.00 0.00 90 1014.3
20260905033434 20 338 1.6 4.8 0.00 0.00 0.00 90 1014.2
20260905032434 20 342 3.2 4.8 0.00 0.00 0.00 90 1014.4
20260905031935 20 337 3.2 4.8 0.00 0.00 0.00 89 1014.4
20260905031435 20 331 3.2 4.8 0.00 0.00 0.00 90 1014.4
20260905030934 20 340 1.6 4.8 0.00 0.00 0.00 90 1014.4
20260905025935 20 282 0.0 3.2 0.00 0.00 0.00 89 1014.3
20260905024934 20 267 1.6 3.2 0.00 0.00 0.00 89 1014.4
20260905024435 20 215 0.0 3.2 0.00 0.00 0.00 89 1014.3
20260905023434 20 215 1.6 4.8 0.00 0.00 0.00 89 1014.3
20260905022934 20 11 3.2 3.2 0.00 0.00 0.00 89 1014.4
20260905022435 20 11 0.0 0.0 0.00 0.00 0.00 89 1014.3
20260905021935 20 11 0.0 0.0 0.00 0.00 0.00 90 1014.3
20260905021434 20 11 1.6 1.6 0.00 0.00 0.00 89 1014.2
20260905020935 20 11 0.0 1.6 0.00 0.00 0.00 89 1014.3
20260905020434 20 11 0.0 0.0 0.00 0.00 0.00 89 1014.3
20260905015434 21 11 0.0 0.0 0.00 0.00 0.00 88 1014.3
20260905013934 21 26 0.0 0.0 0.00 0.00 0.00 87 1014.3
20260905013434 21 26 1.6 3.2 0.00 0.00 0.00 87 1014.3
20260905012934 21 26 1.6 3.2 0.00 0.00 0.00 86 1014.4
20260905012435 21 26 0.0 3.2 0.00 0.00 0.00 86 1014.4
20260905011434 21 26 3.2 4.8 0.00 0.00 0.00 85 1014.3
20260905010934 21 26 1.6 4.8 0.00 0.00 0.00 86 1014.3
20260905010434 21 26 1.6 4.8 0.00 0.00 0.00 86 1014.3
20260905005935 21 23 1.6 4.8 0.00 0.00 0.00 86 1014.4
20260905004934 21 54 1.6 3.2 0.00 0.00 0.00 86 1014.4
20260905004435 21 54 0.0 0.0 0.00 0.00 0.00 86 1014.6
20260905003933 21 54 0.0 0.0 0.00 0.00 0.00 86 1014.6
20260905003434 21 54 0.0 3.2 0.00 0.00 0.00 86 1014.6
20260905002448 21 54 0.0 0.0 0.00 0.00 0.00 86 1014.6
20260905001934 21 54 0.0 0.0 0.00 0.00 0.00 85 1014.7
20260905001434 21 54 0.0 0.0 0.00 0.00 0.00 85 1014.7
20260905000934 22 54 0.0 0.0 0.00 0.00 0.00 84 1014.7
20260905000434 22 54 0.0 0.0 0.00 0.00 0.00 84 1014.7
20260904235937 22 54 0.0 0.0 0.00 0.00 0.00 83 1014.7
20260904234934 22 54 3.2 4.8 0.00 0.00 0.00 83 1014.8
20260904234436 22 54 0.0 1.6 0.00 0.00 0.00 83 1014.8
20260904233950 22 54 1.6 4.8 0.00 0.00 0.00 83 1014.8
20260904232933 22 54 0.0 3.2 0.00 0.00 0.00 82 1014.9
20260904232434 22 54 1.6 3.2 0.00 0.00 0.00 82 1014.9
20260904231935 22 60 1.6 3.2 0.00 0.00 0.00 81 1014.9
20260904231436 22 60 0.0 0.0 0.00 0.00 0.00 81 1014.9
20260904230934 22 60 1.6 4.8 0.00 0.00 0.00 81 1014.9
20260904230433 23 50 1.6 4.8 0.00 0.00 0.00 80 1014.9
20260904225937 23 50 1.6 4.8 0.00 0.00 0.00 80 1015.0
20260904225433 23 50 0.0 3.2 0.00 0.00 0.00 79 1015.0
20260904224935 23 50 1.6 4.8 0.00 0.00 0.00 79 1014.9
20260904224433 23 50 3.2 4.8 0.00 0.00 0.00 79 1014.9
20260904223934 23 50 1.6 4.8 0.00 0.00 0.00 80 1015.0
20260904222934 23 41 3.2 4.8 0.00 0.00 0.00 80 1015.0
20260904222433 23 36 1.6 4.8 0.00 0.00 0.00 80 1015.0
20260904221933 23 36 1.6 4.8 0.00 0.00 0.00 80 1015.0
20260904220433 23 36 1.6 4.8 0.00 0.00 0.00 81 1014.9
20260904215934 23 36 3.2 4.8 0.00 0.00 0.00 80 1015.0
20260904215435 24 36 0.0 1.6 0.00 0.00 0.00 79 1014.9
20260904214949 24 36 3.2 8.0 0.00 0.00 0.00 79 1015.0
20260904214434 24 35 3.2 4.8 0.00 0.00 0.00 77 1014.9
20260904213933 24 31 1.6 3.2 0.00 0.00 0.00 78 1014.9
20260904211433 24 123 0.0 0.0 0.00 0.00 0.00 78 1014.8
20260904210933 24 123 0.0 0.0 0.00 0.00 0.00 79 1014.9
20260904210433 24 122 0.0 0.0 0.00 0.00 0.00 78 1014.9
20260904205433 25 122 0.0 1.6 0.00 0.00 0.00 77 1015.0
20260904203932 25 122 1.6 3.2 0.00 0.00 0.00 77 1015.1
20260904203433 25 122 3.2 4.8 0.00 0.00 0.00 76 1015.1
20260904202949 25 122 3.2 4.8 0.00 0.00 0.00 76 1015.1
20260904202433 25 122 1.6 3.2 0.00 0.00 0.00 76 1015.2
20260904201933 25 106 1.6 4.8 0.00 0.00 0.00 76 1015.2
20260904201433 25 123 3.2 4.8 0.00 0.00 0.00 75 1015.2
20260904200433 26 121 0.0 3.2 0.00 0.00 0.00 74 1015.2
20260904195433 26 121 0.0 0.0 0.00 0.00 0.00 75 1015.2
20260904194436 26 121 0.0 0.0 0.00 0.00 0.00 75 1015.2
20260904193933 26 121 0.0 0.0 0.00 0.00 0.00 75 1015.2
20260904193434 26 121 0.0 0.0 0.00 0.00 0.00 74 1015.2
20260904192932 26 120 0.0 0.0 0.00 0.00 0.00 74 1015.2
20260904192433 26 120 0.0 0.0 0.00 0.00 0.00 73 1015.2
20260904191438 26 120 0.0 0.0 0.00 0.00 0.00 72 1015.1
20260904190433 26 120 0.0 0.0 0.00 0.00 0.00 71 1015.1
20260904185940 26 120 0.0 0.0 0.00 0.00 0.00 70 1015.1
20260904185434 26 120 0.0 0.0 0.00 0.00 0.00 71 1015.0
20260904184932 27 120 0.0 0.0 0.00 0.00 0.00 71 1015.0
20260904183933 27 120 0.0 0.0 0.00 0.00 0.00 71 1015.0
20260904183436 27 120 0.0 0.0 0.00 0.00 0.00 71 1015.0
20260904182932 27 120 0.0 0.0 0.00 0.00 0.00 71 1014.9
20260904182433 27 120 0.0 0.0 0.00 0.00 0.00 70 1014.9
20260904180933 27 120 0.0 0.0 0.00 0.00 0.00 72 1014.7
20260904180433 27 120 0.0 0.0 0.00 0.00 0.00 71 1014.7
20260904175433 28 120 1.6 4.8 0.00 0.00 0.00 69 1014.5
20260904174433 29 96 1.6 3.2 0.00 0.00 0.00 68 1014.4
20260904173432 29 96 1.6 3.2 0.00 0.00 0.00 68 1014.5
20260904171434 30 66 3.2 4.8 0.00 0.00 0.00 61 1014.5
20260904170934 30 67 1.6 3.2 0.00 0.00 0.00 62 1014.5
20260904165933 31 67 1.6 4.8 0.00 0.00 0.00 58 1014.5
20260904165433 32 63 1.6 3.2 0.00 0.00 0.00 55 1014.5
20260904164932 32 71 3.2 4.8 0.00 0.00 0.00 53 1014.6
20260904164432 32 73 3.2 4.8 0.00 0.00 0.00 55 1014.6
20260904163432 32 78 1.6 4.8 0.00 0.00 0.00 55 1014.7
20260904162433 32 90 3.2 4.8 0.00 0.00 0.00 53 1014.8
20260904161932 32 88 3.2 8.0 0.00 0.00 0.00 53 1014.8
20260904161432 32 98 3.2 4.8 0.00 0.00 0.00 53 1014.8
20260904160435 32 106 3.2 8.0 0.00 0.00 0.00 52 1014.8
20260904155432 33 79 3.2 8.0 0.00 0.00 0.00 51 1014.9
20260904154932 33 78 4.8 8.0 0.00 0.00 0.00 52 1014.9
20260904153932 33 109 4.8 8.0 0.00 0.00 0.00 51 1015.0
20260904153433 33 96 4.8 8.0 0.00 0.00 0.00 49 1015.0
20260904152433 33 90 3.2 4.8 0.00 0.00 0.00 46 1015.0
20260904151932 33 121 3.2 8.0 0.00 0.00 0.00 50 1015.1
20260904150934 33 91 3.2 8.0 0.00 0.00 0.00 50 1015.1
20260904150432 33 94 4.8 9.7 0.00 0.00 0.00 49 1015.1
20260904145932 33 90 6.4 9.7 0.00 0.00 0.00 51 1015.1
20260904144931 33 112 3.2 9.7 0.00 0.00 0.00 50 1015.2
20260904144431 33 92 4.8 9.7 0.00 0.00 0.00 49 1015.2
20260904143432 33 76 8.0 11.3 0.00 0.00 0.00 49 1015.3
20260904142932 33 88 4.8 11.3 0.00 0.00 0.00 50 1015.4
20260904141933 33 88 3.2 8.0 0.00 0.00 0.00 47 1015.5
20260904140933 33 110 8.0 11.3 0.00 0.00 0.00 49 1015.5
20260904140432 33 111 4.8 12.9 0.00 0.00 0.00 51 1015.6
20260904134933 33 146 4.8 8.0 0.00 0.00 0.00 49 1015.8
20260904134434 33 96 3.2 8.0 0.00 0.00 0.00 49 1015.8
20260904133932 33 115 4.8 8.0 0.00 0.00 0.00 49 1015.9
20260904133432 33 98 4.8 9.7 0.00 0.00 0.00 52 1016.0
20260904132932 32 143 8.0 12.9 0.00 0.00 0.00 50 1016.0
20260904131932 32 71 8.0 14.5 0.00 0.00 0.00 52 1016.1
20260904131432 33 42 9.7 14.5 0.00 0.00 0.00 53 1016.2
20260904130932 33 71 8.0 14.5 0.00 0.00 0.00 52 1016.2
20260904130434 33 61 8.0 12.9 0.00 0.00 0.00 52 1016.2
20260904125932 33 83 4.8 11.3 0.00 0.00 0.00 52 1016.3
20260904125433 32 99 4.8 11.3 0.00 0.00 0.00 51 1016.4
20260904124932 32 172 3.2 8.0 0.00 0.00 0.00 52 1016.4
20260904124432 32 135 8.0 14.5 0.00 0.00 0.00 52 1016.5
20260904123932 32 89 6.4 12.9 0.00 0.00 0.00 54 1016.6
20260904123431 32 93 6.4 12.9 0.00 0.00 0.00 54 1016.6
20260904121932 32 113 9.7 16.1 0.00 0.00 0.00 54 1016.7
20260904121432 32 87 8.0 16.1 0.00 0.00 0.00 54 1016.7
20260904115443 32 213 3.2 4.8 0.00 0.00 0.00 55 1016.8
20260904114932 32 49 1.6 11.3 0.00 0.00 0.00 58 1016.9
20260904112933 31 187 4.8 12.9 0.00 0.00 0.00 57 1017.1
20260904112439 31 123 4.8 12.9 0.00 0.00 0.00 57 1017.1
20260904111931 31 68 4.8 12.9 0.00 0.00 0.00 57 1017.2
20260904111432 31 94 3.2 9.7 0.00 0.00 0.00 59 1017.3
20260904110934 30 91 4.8 11.3 0.00 0.00 0.00 58 1017.4
20260904110432 31 102 8.0 12.9 0.00 0.00 0.00 60 1017.4
20260904105931 31 125 8.0 11.3 0.00 0.00 0.00 59 1017.4
20260904105433 31 105 6.4 12.9 0.00 0.00 0.00 59 1017.5
20260904104931 31 54 4.8 9.7 0.00 0.00 0.00 62 1017.6
20260904104431 30 84 8.0 11.3 0.00 0.00 0.00 61 1017.7
20260904103431 30 85 3.2 9.7 0.00 0.00 0.00 59 1017.8
20260904102934 30 89 3.2 11.3 0.00 0.00 0.00 60 1017.8
20260904101931 30 93 4.8 9.7 0.00 0.00 0.00 59 1017.8
20260904100936 30 140 3.2 8.0 0.00 0.00 0.00 59 1017.9
20260904100431 30 64 3.2 11.3 0.00 0.00 0.00 59 1017.9
20260904095932 30 49 3.2 8.0 0.00 0.00 0.00 59 1017.9
20260904095431 29 103 4.8 8.0 0.00 0.00 0.00 60 1018.0
20260904094948 29 101 3.2 9.7 0.00 0.00 0.00 60 1018.0
20260904094431 29 60 4.8 8.0 0.00 0.00 0.00 65 1018.0